星链-3690 (STARLINK-3690 )

导读

STARLINK-3690是美国SpaceX公司星链项目的一颗低轨通信卫星,属于Starlink V1.5批次,于2022年3月9日发射升空。作为星链星座的组成部分,它配备激光星间链路,可实现卫星间直接通信,降低对地面基站的依赖,助力为全球提供高速低延迟的宽带互联网服务,扩展了星链网络覆盖范围,推动全球互联网接入的普及。

基本信息
目录编号:
51964
目录名称:
STARLINK-3690
国际标识:
2022-025J
轨道中心:
EARTH
卫星名称:
星链-3690
卫星全名:
星链-3690 (STARLINK-3690 )
卫星状态:
在轨 (已飞行1648 天)
发射日期:
2022-03-09 UTC
国别 :
美国 (US)
星等 :
--
该卫星已列入 空间交会检测服务 Space Conjunction Data Service (SCDS) ,当前飞行风险评估等级: 无高风险
轨道信息
数据来源 国际轨道数据 AOE轨道数据
星历时间 2026-09-11T16:04:50+0800
1天前
查看轨道信息
2026-09-06T08:00:00+0800
6天前
查看轨道信息
半长轴 6848.96km 6848.87km
偏心率 0.0001184 0.0001505
轨道倾角 53.159° 53.160°
近地点辐角 93.288° 71.585°
升交点赤经 240.329° 265.179°
平近点角 266.826° 4.980°
近地点 470.012km 469.702km
远地点 471.634km 471.764km
周期 94.015分钟 94.013分钟
每日圈数 15.316722 15.317024
详细信息
固有亮度:
5
最大亮度:
2.5
卫星平台:
Starlink v1.5
覆盖范围:
全球
运营商:
太空探索技术公司
运营商所在国:
美国
制造商(研发单位):
太空探索技术公司
制造商所在国:
美国
使用方式:
暂无
卫星简介
星链(Starlink)计划是由太空探索技术公司(SpaceX)提出的一个巨型低轨卫星互联网星座项目,计划在2019年至2024年间在太空搭建由约1.2万颗卫星组成的“星链”网络,其中1584颗将部署在地球上空550千米处的近地轨道,并从2020年开始工作。该卫星仍在工作。
2D轨道图
3D轨道图
轨道高度分析图
轨道倾角分析图
轨道综合分析图
查看轨道综合分析图
与全量物体交会距离演化趋势
与全量物体交会风险概率演化趋势